sat.trackr.live / text

‹ back to catalog

STARLINK-32257

NORAD 62171 · 2024-225J

PAYLOAD ACTIVE UNKNOWN

§ Identity

Operator
Country
US
Launch date
2024-11-30
Launch site
AFWTR
Launch vehicle
Mass (kg)
RCS (m²)

Purposes: comms

External: N2YO · Heavens-Above · Gunter

§ Orbital elements

Epoch: 2026-09-21T17:31:39.959040Z

Period
96.11 min
Inclination
70.0017°
Eccentricity
0.0003538
Mean motion
14.98333948 rev/d
Perigee alt
569.6 km
Apogee alt
574.5 km
Semi-major
6,950.2 km
B*
-4.7515e-4
RAAN
30.0234°
Arg perigee
266.6665°
Mean anomaly
93.4089°
Rev number
9,924

§ Raw data

STARLINK-322571 62171U 24225J   26264.73032360 -.00005759  00000+0 -47515-3 0  99982 62171  70.0017  30.0234 0003538 266.6665  93.4089 14.98333948 99241

JSON: /api/v1/satellites/62171 · /tle

For live sub-satellite position, see the globe view (requires WebGL).

§ Visibility from observer

Set your observer location to see the next 7 days of passes ≥ 10°. The values pass through the URL so the page stays shareable.

No JS? Fill the form by hand. The geolocation button needs JavaScript.